This demonstration page uses our WeatherBlox Daily Observations layout. Learn more.

Left ArrowRight Arrow

Hourly Observations for July 1, 2022

Temp ( °F °C ) Dew Point ( °F °C ) Humidity (%) Winds ( mph kmh ) Pressure ( in mb ) Visibility ( mi km ) Precip ( " mm )
12:15 am 00:15 Partly Cloudy 75 24.1 62 16.8 64 64 NE 8 13 29.89 1012 10 16 0.00 0.00
12:35 am 00:35 Clear 75 24 61 16.1 61 61 NE 14 22 29.90 1013 10 16 0.00 0.00
12:55 am 00:55 Mostly Cloudy 75 24.1 61 16 61 61 ENE 8 13 29.90 1013 10 16 0.00 0.00
1:15 am 01:15 Mostly Cloudy with Drizzle 74 23.2 62 16.5 66 66 NNE 9 15 29.92 1013 10 16 0.00 0.00
1:35 am 01:35 Clear with Drizzle 73 23 62 16.5 67 67 Calm 29.93 1014 10 16 0.00 0.00
1:55 am 01:55 Clear 73 23 61 15.9 64 64 ENE 13 20 29.91 1013 10 16 0.00 0.00
2:15 am 02:15 Clear 73 22.5 61 16.1 67 67 NE 7 11 29.94 1014 10 16 0.00 0.00
2:35 am 02:35 Partly Cloudy 73 22.6 61 16 66 66 NE 7 11 29.94 1014 10 16 0.00 0.00
2:55 am 02:55 Partly Cloudy with Light Rain 71 21.8 61 16.3 71 71 E 6 9 29.95 1014 10 16 0.00 0.00
3:15 am 03:15 Clear 69 20.7 63 17 79 79 ESE 5 7 29.95 1014 10 16 0.00 0.00
3:35 am 03:35 Clear 69 20.5 63 17.3 82 82 SE 6 9 29.95 1014 10 16 0.00 0.00
3:55 am 03:55 Clear 69 20.3 64 17.8 86 86 ESE 5 7 29.95 1014 10 16 0.00 0.00
4:15 am 04:15 Partly Cloudy 69 20.4 64 17.8 85 85 E 6 9 29.94 1014 10 16 0.00 0.00
4:35 am 04:35 Mostly Cloudy 68 20.1 64 17.9 87 87 E 5 7 29.94 1014 10 16 0.00 0.00
4:55 am 04:55 Cloudy 68 20 64 17.8 87 87 E 6 9 29.95 1014 10 16 0.00 0.00
5:15 am 05:15 Mostly Cloudy 68 20.2 64 17.8 86 86 Calm 29.96 1014 10 16 0.00 0.00
5:35 am 05:35 Mostly Cloudy 68 20.1 64 18 88 88 NW 8 13 29.98 1015 10 16 0.00 0.00
5:55 am 05:55 Cloudy 69 20.5 62 16.5 78 78 NNW 12 19 29.99 1016 10 16 0.00 0.00
6:15 am 06:15 Cloudy 68 20.2 60 15.5 75 75 N 16 26 29.99 1015 10 16 0.00 0.00
6:35 am 06:35 Mostly Cloudy 67 19.7 57 14 70 70 N 18 30 29.99 1016 10 16 0.00 0.00
6:55 am 06:55 Partly Cloudy 66 18.9 57 14.1 74 74 N 16 26 30.00 1016 10 16 0.00 0.00
7:15 am 07:15 Partly Cloudy 65 18.6 58 14.2 76 76 NNE 16 26 30.01 1016 10 16 0.00 0.00
7:35 am 07:35 Mostly Cloudy 66 19 58 14.3 74 74 NE 16 26 30.01 1016 10 16 0.00 0.00
7:55 am 07:55 Partly Cloudy 67 19.2 57 14 72 72 NE 13 20 30.00 1016 10 16 0.00 0.00
8:15 am 08:15 Sunny 67 19.5 57 14.1 71 71 ENE 15 24 30.01 1016 10 16 0.00 0.00
8:35 am 08:35 Sunny 67 19.5 57 14.1 71 71 ENE 15 24 30.00 1016 10 16 0.00 0.00
8:55 am 08:55 Partly Cloudy 67 19.7 57 14.1 70 70 E 12 19 30.00 1016 10 16 0.00 0.00
9:15 am 09:15 Partly Cloudy 68 20 58 14.2 69 69 E 16 26 30.01 1016 10 16 0.00 0.00
9:35 am 09:35 Partly Cloudy 67 19.7 59 15 74 74 ENE 13 20 30.01 1016 10 16 0.00 0.00
9:55 am 09:55 Partly Cloudy 68 20 60 15.3 74 74 ENE 15 24 30.02 1016 10 16 0.00 0.00
10:15 am 10:15 Partly Cloudy 69 20.5 60 15.3 72 72 ENE 15 24 30.00 1016 10 16 0.00 0.00
10:35 am 10:35 Mostly Cloudy 70 21.2 58 14.7 67 67 E 17 28 30.01 1016 10 16 0.00 0.00
10:55 am 10:55 Cloudy 71 21.4 58 14.6 65 65 ENE 12 19 30.01 1016 10 16 0.00 0.00
11:15 am 11:15 Mostly Cloudy 71 21.9 59 14.9 65 65 ENE 14 22 30.00 1016 10 16 0.00 0.00
11:35 am 11:35 Mostly Cloudy 73 22.6 59 14.8 62 62 ENE 15 24 30.00 1016 10 16 0.00 0.00
11:55 am 11:55 Mostly Cloudy 74 23.2 58 14.6 59 59 NE 12 19 30.00 1016 10 16 0.00 0.00
12:15 pm 12:15 Mostly Cloudy 75 23.9 58 14.5 56 56 ENE 15 24 30.00 1016 10 16 0.00 0.00
12:35 pm 12:35 Cloudy 75 24.1 59 15 57 57 E 12 19 29.99 1016 10 16 0.00 0.00
12:55 pm 12:55 Cloudy 76 24.3 59 14.8 55 55 ENE 10 17 29.98 1015 10 16 0.00 0.00
1:15 pm 13:15 Cloudy 77 25 59 15.1 54 54 E 14 22 29.97 1015 10 16 0.00 0.00
1:35 pm 13:35 Mostly Cloudy 78 25.8 60 15.3 52 52 E 16 26 29.95 1014 10 16 0.00 0.00
1:55 pm 13:55 Partly Cloudy 79 26.1 60 15.8 53 53 E 14 22 29.95 1014 10 16 0.00 0.00
2:15 pm 14:15 Sunny 80 26.9 61 15.9 51 51 ENE 10 17 29.94 1014 10 16 0.00 0.00
2:35 pm 14:35 Sunny 81 27 60 15.5 49 49 ENE 10 17 29.94 1014 10 16 0.00 0.00
2:55 pm 14:55 Sunny 81 27.4 59 14.9 46 46 ESE 10 17 29.93 1013 10 16 0.00 0.00
3:15 pm 15:15 Sunny 82 27.7 61 15.9 49 49 ESE 10 17 29.92 1013 10 16 0.00 0.00
3:35 pm 15:35 Sunny 82 27.9 60 15.3 46 46 ESE 9 15 29.92 1013 10 16 0.00 0.00
3:55 pm 15:55 Sunny 82 27.9 61 15.9 48 48 E 9 15 29.92 1013 10 16 0.00 0.00
4:15 pm 16:15 Sunny 83 28.4 60 15.4 45 45 E 12 19 29.91 1013 10 16 0.00 0.00
4:35 pm 16:35 Sunny 83 28.5 60 15.3 45 45 E 13 20 29.90 1012 10 16 0.00 0.00
4:55 pm 16:55 Sunny 83 28.5 60 15.4 45 45 ESE 12 19 29.90 1012 10 16 0.00 0.00
5:15 pm 17:15 Sunny 83 28.4 60 15.7 46 46 E 12 19 29.89 1012 10 16 0.00 0.00
5:35 pm 17:35 Partly Cloudy 83 28.3 62 16.6 49 49 E 14 22 29.89 1012 10 16 0.00 0.00
5:55 pm 17:55 Partly Cloudy 82 28 61 15.9 48 48 E 13 20 29.87 1012 10 16 0.00 0.00
6:15 pm 18:15 Sunny 82 28 60 15.7 47 47 ESE 12 19 29.87 1012 10 16 0.00 0.00
6:35 pm 18:35 Sunny 82 27.7 61 16 49 49 ESE 12 19 29.88 1012 10 16 0.00 0.00
6:55 pm 18:55 Sunny 82 27.5 61 16.1 50 50 E 14 22 29.87 1011 10 16 0.00 0.00
7:15 pm 19:15 Sunny 81 27 61 15.9 51 51 E 14 22 29.87 1012 10 16 0.00 0.00
7:35 pm 19:35 Sunny 80 26.5 61 16.1 53 53 E 10 17 29.87 1012 10 16 0.00 0.00
7:55 pm 19:55 Sunny 79 25.9 61 16 54 54 E 13 20 29.88 1012 10 16 0.00 0.00
8:15 pm 20:15 Sunny 77 25.1 62 16.7 60 60 E 8 13 29.89 1012 10 16 0.00 0.00
8:35 pm 20:35 Sunny 75 24.1 63 17.3 66 66 SE 8 13 29.90 1013 10 16 0.00 0.00
8:55 pm 20:55 Sunny 73 22.9 64 17.5 72 72 SE 6 9 29.91 1013 10 16 0.00 0.00
9:15 pm 21:15 Clear 71 21.6 63 17.4 77 77 ESE 5 7 29.92 1013 10 16 0.00 0.00
9:35 pm 21:35 Clear 69 20.5 63 17.3 82 82 E 7 11 29.94 1014 10 16 0.00 0.00
9:55 pm 21:55 Clear 68 19.8 63 17 84 84 E 6 9 29.96 1015 10 16 0.00 0.00
10:15 pm 22:15 Clear 68 19.8 63 17.1 85 85 ESE 7 11 29.96 1015 10 16 0.00 0.00
10:35 pm 22:35 Clear 67 19.4 63 17 86 86 ESE 8 13 29.96 1015 10 16 0.00 0.00
10:55 pm 22:55 Clear 66 19 63 17 88 88 ESE 6 9 29.98 1015 10 16 0.00 0.00
11:15 pm 23:15 Clear 65 18.5 62 16.8 90 90 E 7 11 29.98 1015 10 16 0.00 0.00
11:35 pm 23:35 Clear 65 18.1 62 16.6 91 91 E 6 9 29.98 1015 10 16 0.00 0.00
11:55 pm 23:55 Clear 64 17.8 62 16.5 92 92 E 6 9 30.00 1016 10 16 0.00 0.00

Powered by AerisWeather